Weather in Neuilly-sur-Seine

France     48°53′19″N   2°16′26″E
temp.,
°C
wind,
m/s
gust,
m/s
humid.,
%
clouds,
%
prec.,
mm/h
press.,
hPa
HPBL,
m
16 may, mon
mon1623:00+17sse3688100 5.1 1013139
02:00+17s4129012 6.0 1013522
05:00+16sw3994100 0.0 1013400
08:00+16wsw41188100 0.0 1016506
11:00+20w4759100 0.0 1018901
14:00+23w47448 0.0 10191949
17:00+24w4542100 0.0 10182216
20:00+21w1358100 0.0 1019279
17 may, tue
tue1723:00+18ne117197 0.0 102013
02:00+17se2372100 0.0 102099
05:00+17s267377 0.0 1020196
08:00+17ssw127320 0.0 1020196
11:00+23s115626 0.0 1020696
14:00+26sse22392 0.0 10191907
17:00+27sse33369 0.0 10172271
20:00+26sse244692 0.0 1017817
18 may, wed
wed1823:00+21wnw016688 0.0 101814
02:00+19s12804 0.4 101944
05:00+18wnw11900 0.3 102015
08:00+18nnw23860 0.3 1021201
11:00+23n216268 0.0 1022681
14:00+26n224698 0.0 10201360
17:00+28e444289 0.0 10182005
20:00+25ese4659100 0.0 1017898
19 may, thu
thu1923:00+22ese3108291 0.9 1017305
02:00+20se278894 1.9 1016226
05:00+19s2689100 0.3 1016204
08:00+19s2491100 1.8 1017202
11:00+24wsw366882 0.0 1017795
14:00+23wnw566541 0.1 10201003
17:00+23nw446275 0.2 10201056
20:00+21nnw446459 0.2 1020941
20 may, fri
fri2023:00+17nne257919 0.0 1022242
02:00+15ne23765 0.0 1022162
05:00+14ne237392 0.0 1021156
08:00+16ese3666100 0.0 1021237
11:00+20ese2476100 0.6 1019587
14:00+20s1488100 5.3 1017442
17:00+21wnw5886100 1.0 1017727
20:00+19nw478110 1.2 1019767